Time,TemperatureF,DewpointF,PressureIn,WindDirection,WindDirectionDegrees,WindSpeedMPH,WindSpeedGustMPH,Humidity,HourlyPrecipIn,Conditions,Clouds,dailyrainin,SolarRadiationWatts/m^2,SoftwareType,DateUTC
2013-11-01 00:06:00,39.3,39.3,30.23,North,0,1.0,8.0,100,0.00,,,0.00,0,Wunderground v.1.15,2013-11-01 07:06:00,
2013-11-01 00:11:00,38.1,38.1,30.23,North,0,0.0,8.0,100,0.00,,,0.00,0,Wunderground v.1.15,2013-11-01 07:11:00,
2013-11-01 00:20:00,38.4,38.4,30.23,North,0,0.0,8.0,100,0.00,,,0.00,0,Wunderground v.1.15,2013-11-01 07:20:00,
2013-11-01 00:26:00,38.0,38.0,30.23,North,0,0.0,8.0,100,0.00,,,0.00,0,Wunderground v.1.15,2013-11-01 07:26:00,
2013-11-01 00:36:00,37.5,37.5,30.23,North,0,0.0,8.0,100,0.00,,,0.00,0,Wunderground v.1.15,2013-11-01 07:36:00,
2013-11-01 00:46:00,37.1,37.1,30.23,North,0,3.0,8.0,100,0.00,,,0.00,0,Wunderground v.1.15,2013-11-01 07:46:00,
2013-11-01 00:56:00,36.4,36.4,30.23,North,0,0.0,8.0,100,0.00,,,0.00,0,Wunderground v.1.15,2013-11-01 07:56:00,
2013-11-01 01:06:00,35.3,35.3,30.23,North,0,0.0,8.0,100,0.00,,,0.00,0,Wunderground v.1.15,2013-11-01 08:06:00,
2013-11-01 01:16:00,34.5,34.5,30.24,North,0,2.0,8.0,100,0.00,,,0.00,0,Wunderground v.1.15,2013-11-01 08:16:00,
2013-11-01 01:26:00,34.1,34.1,30.23,North,0,3.0,8.0,100,0.00,,,0.00,0,Wunderground v.1.15,2013-11-01 08:26:00,
2013-11-01 01:36:00,33.3,33.3,30.23,North,0,1.0,8.0,100,0.00,,,0.00,0,Wunderground v.1.15,2013-11-01 08:36:00,
2013-11-01 01:46:00,32.2,32.2,30.23,North,0,0.0,8.0,100,0.00,,,0.00,0,Wunderground v.1.15,2013-11-01 08:46:00,
2013-11-01 01:56:00,31.1,31.1,30.23,North,0,1.0,8.0,100,0.00,,,0.00,0,Wunderground v.1.15,2013-11-01 08:56:00,
2013-11-01 02:06:00,31.0,31.0,30.23,North,0,0.0,8.0,100,0.00,,,0.00,0,Wunderground v.1.15,2013-11-01 09:06:00,
2013-11-01 02:11:00,30.9,30.9,30.23,North,0,2.0,8.0,100,0.00,,,0.00,0,Wunderground v.1.15,2013-11-01 09:11:00,
2013-11-01 02:16:00,31.0,31.0,30.23,North,0,2.0,8.0,100,0.00,,,0.00,0,Wunderground v.1.15,2013-11-01 09:16:00,
2013-11-01 02:26:00,30.6,30.6,30.23,North,0,2.0,8.0,100,0.00,,,0.00,0,Wunderground v.1.15,2013-11-01 09:26:00,
2013-11-01 02:36:00,30.5,30.5,30.23,North,0,0.0,8.0,100,0.00,,,0.00,0,Wunderground v.1.15,2013-11-01 09:36:00,
2013-11-01 02:46:00,29.8,29.8,30.23,North,0,0.0,8.0,100,0.00,,,0.00,0,Wunderground v.1.15,2013-11-01 09:46:00,
2013-11-01 02:56:00,29.4,29.4,30.23,North,0,2.0,8.0,100,0.00,,,0.00,0,Wunderground v.1.15,2013-11-01 09:56:00,
2013-11-01 03:06:00,29.3,29.3,30.23,North,0,3.0,8.0,100,0.00,,,0.00,0,Wunderground v.1.15,2013-11-01 10:06:00,
2013-11-01 03:16:00,29.1,29.1,30.23,North,0,2.0,8.0,100,0.00,,,0.00,0,Wunderground v.1.15,2013-11-01 10:16:00,
2013-11-01 03:26:00,28.3,28.3,30.23,North,0,1.0,8.0,100,0.00,,,0.00,0,Wunderground v.1.15,2013-11-01 10:26:00,
2013-11-01 03:36:00,27.7,27.7,30.23,North,0,0.0,8.0,100,0.00,,,0.00,0,Wunderground v.1.15,2013-11-01 10:36:00,
2013-11-01 03:46:00,27.3,27.3,30.23,North,0,0.0,8.0,100,0.00,,,0.00,0,Wunderground v.1.15,2013-11-01 10:46:00,
2013-11-01 03:56:00,27.3,27.3,30.23,North,0,0.0,8.0,100,0.00,,,0.00,0,Wunderground v.1.15,2013-11-01 10:56:00,
2013-11-01 04:06:00,27.6,27.6,30.23,North,0,0.0,8.0,100,0.00,,,0.00,0,Wunderground v.1.15,2013-11-01 11:06:00,
2013-11-01 04:11:00,27.6,27.6,30.23,North,0,0.0,8.0,100,0.00,,,0.00,0,Wunderground v.1.15,2013-11-01 11:11:00,
2013-11-01 04:16:00,27.3,27.3,30.23,North,0,0.0,8.0,100,0.00,,,0.00,0,Wunderground v.1.15,2013-11-01 11:16:00,
2013-11-01 04:26:00,27.7,27.7,30.23,North,0,0.0,8.0,100,0.00,,,0.00,0,Wunderground v.1.15,2013-11-01 11:26:00,
2013-11-01 04:36:00,27.4,27.4,30.23,North,0,0.0,8.0,100,0.00,,,0.00,0,Wunderground v.1.15,2013-11-01 11:36:00,
2013-11-01 04:46:00,27.7,27.7,30.23,North,0,0.0,8.0,100,0.00,,,0.00,0,Wunderground v.1.15,2013-11-01 11:46:00,
2013-11-01 04:56:00,27.3,27.3,30.23,North,0,0.0,8.0,100,0.00,,,0.00,0,Wunderground v.1.15,2013-11-01 11:56:00,
2013-11-01 05:06:00,27.6,27.6,30.23,North,0,0.0,8.0,100,0.00,,,0.00,0,Wunderground v.1.15,2013-11-01 12:06:00,
2013-11-01 05:11:00,27.3,27.3,30.23,North,0,0.0,8.0,100,0.00,,,0.00,0,Wunderground v.1.15,2013-11-01 12:11:00,
2013-11-01 05:16:00,26.9,26.9,30.23,North,0,0.0,8.0,100,0.00,,,0.00,0,Wunderground v.1.15,2013-11-01 12:16:00,
2013-11-01 05:26:00,25.9,25.9,30.22,North,0,1.0,8.0,100,0.00,,,0.00,0,Wunderground v.1.15,2013-11-01 12:26:00,
2013-11-01 05:36:00,25.6,25.6,30.23,North,0,0.0,8.0,100,0.00,,,0.00,0,Wunderground v.1.15,2013-11-01 12:36:00,
2013-11-01 05:50:00,25.5,25.5,30.23,North,0,0.0,8.0,100,0.00,,,0.00,0,Wunderground v.1.15,2013-11-01 12:50:00,
2013-11-01 05:56:00,25.5,25.5,30.23,North,0,0.0,8.0,100,0.00,,,0.00,0,Wunderground v.1.15,2013-11-01 12:56:00,
2013-11-01 06:06:00,25.7,25.7,30.23,North,0,0.0,8.0,100,0.00,,,0.00,0,Wunderground v.1.15,2013-11-01 13:06:00,
2013-11-01 06:16:00,25.8,25.8,30.23,North,0,0.0,8.0,100,0.00,,,0.00,0,Wunderground v.1.15,2013-11-01 13:16:00,
2013-11-01 06:26:00,25.5,25.5,30.23,North,0,0.0,8.0,100,0.00,,,0.00,0,Wunderground v.1.15,2013-11-01 13:26:00,
2013-11-01 06:36:00,25.2,25.2,30.23,North,0,0.0,8.0,100,0.00,,,0.00,0,Wunderground v.1.15,2013-11-01 13:36:00,
2013-11-01 06:46:00,25.0,25.0,30.23,North,0,0.0,8.0,100,0.00,,,0.00,0,Wunderground v.1.15,2013-11-01 13:46:00,
2013-11-01 06:56:00,24.7,24.7,30.23,North,0,0.0,8.0,100,0.00,,,0.00,0,Wunderground v.1.15,2013-11-01 13:56:00,
2013-11-01 07:06:00,24.5,24.5,30.23,North,0,0.0,8.0,100,0.00,,,0.00,0,Wunderground v.1.15,2013-11-01 14:06:00,
2013-11-01 07:11:00,24.3,24.3,30.23,North,0,0.0,8.0,100,0.00,,,0.00,0,Wunderground v.1.15,2013-11-01 14:11:00,
2013-11-01 07:16:00,24.1,24.1,30.23,North,0,0.0,8.0,100,0.00,,,0.00,0,Wunderground v.1.15,2013-11-01 14:16:00,
2013-11-01 07:26:00,24.3,24.3,30.23,North,0,0.0,8.0,100,0.00,,,0.00,0,Wunderground v.1.15,2013-11-01 14:26:00,
2013-11-01 07:36:00,24.2,24.2,30.23,North,0,0.0,8.0,100,0.00,,,0.00,0,Wunderground v.1.15,2013-11-01 14:36:00,
2013-11-01 07:46:00,24.3,24.3,30.23,North,0,0.0,8.0,100,0.00,,,0.00,0,Wunderground v.1.15,2013-11-01 14:46:00,
2013-11-01 07:56:00,23.9,23.9,30.23,North,0,0.0,8.0,100,0.00,,,0.00,0,Wunderground v.1.15,2013-11-01 14:56:00,
2013-11-01 08:06:00,24.2,24.2,30.23,North,0,0.0,8.0,100,0.00,,,0.00,0,Wunderground v.1.15,2013-11-01 15:06:00,
2013-11-01 08:11:00,24.7,24.7,30.23,North,0,0.0,8.0,100,0.00,,,0.00,0,Wunderground v.1.15,2013-11-01 15:11:00,
2013-11-01 08:16:00,25.1,25.1,30.23,North,0,0.0,8.0,100,0.00,,,0.00,0,Wunderground v.1.15,2013-11-01 15:16:00,
2013-11-01 08:26:00,25.7,25.7,30.23,North,0,0.0,8.0,100,0.00,,,0.00,0,Wunderground v.1.15,2013-11-01 15:26:00,
2013-11-01 08:36:00,26.7,26.7,30.24,North,0,0.0,8.0,100,0.00,,,0.00,0,Wunderground v.1.15,2013-11-01 15:36:00,
2013-11-01 08:46:00,28.0,27.8,30.23,North,0,0.0,8.0,99,0.00,,,0.00,0,Wunderground v.1.15,2013-11-01 15:46:00,
2013-11-01 08:56:00,29.0,28.8,30.23,North,0,0.0,8.0,99,0.00,,,0.00,0,Wunderground v.1.15,2013-11-01 15:56:00,
2013-11-01 09:06:00,31.0,31.0,30.24,North,0,0.0,8.0,100,0.00,,,0.00,0,Wunderground v.1.15,2013-11-01 16:06:00,
2013-11-01 09:16:00,33.0,32.5,30.23,North,0,0.0,8.0,98,0.00,,,0.00,0,Wunderground v.1.15,2013-11-01 16:16:00,
2013-11-01 09:26:00,33.3,32.5,30.23,North,0,0.0,8.0,97,0.00,,,0.00,0,Wunderground v.1.15,2013-11-01 16:26:00,
2013-11-01 09:36:00,34.0,33.2,30.23,North,0,0.0,8.0,97,0.00,,,0.00,0,Wunderground v.1.15,2013-11-01 16:36:00,
2013-11-01 09:46:00,35.6,34.3,30.23,North,0,0.0,8.0,95,0.00,,,0.00,0,Wunderground v.1.15,2013-11-01 16:46:00,
2013-11-01 09:56:00,36.9,35.1,30.23,North,0,0.0,8.0,93,0.00,,,0.00,0,Wunderground v.1.15,2013-11-01 16:56:00,
2013-11-01 10:06:00,38.8,36.7,30.23,North,0,0.0,8.0,92,0.00,,,0.00,0,Wunderground v.1.15,2013-11-01 17:06:00,
2013-11-01 10:16:00,40.5,37.8,30.23,North,0,0.0,8.0,90,0.00,,,0.00,0,Wunderground v.1.15,2013-11-01 17:16:00,
2013-11-01 10:26:00,41.8,38.5,30.22,North,0,0.0,8.0,88,0.00,,,0.00,0,Wunderground v.1.15,2013-11-01 17:26:00,
2013-11-01 10:36:00,42.3,38.4,30.22,North,0,1.0,8.0,86,0.00,,,0.00,0,Wunderground v.1.15,2013-11-01 17:36:00,
2013-11-01 10:46:00,43.5,38.7,30.21,North,0,0.0,8.0,83,0.00,,,0.00,0,Wunderground v.1.15,2013-11-01 17:46:00,
2013-11-01 10:56:00,44.5,39.7,30.21,North,0,0.0,8.0,83,0.00,,,0.00,0,Wunderground v.1.15,2013-11-01 17:56:00,
2013-11-01 11:06:00,46.3,41.1,30.21,North,1,3.0,8.0,82,0.00,,,0.00,0,Wunderground v.1.15,2013-11-01 18:06:00,
2013-11-01 11:16:00,47.0,41.1,30.21,East,85,0.0,8.0,80,0.00,,,0.00,0,Wunderground v.1.15,2013-11-01 18:16:00,
2013-11-01 11:26:00,47.1,41.6,30.21,NNE,32,2.0,8.0,81,0.00,,,0.00,0,Wunderground v.1.15,2013-11-01 18:26:00,
2013-11-01 11:36:00,47.8,41.9,30.21,East,86,1.0,8.0,80,0.00,,,0.00,0,Wunderground v.1.15,2013-11-01 18:36:00,
2013-11-01 11:46:00,48.7,42.5,30.20,East,101,4.0,8.0,79,0.00,,,0.00,0,Wunderground v.1.15,2013-11-01 18:46:00,
2013-11-01 11:56:00,49.2,42.6,30.20,East,91,5.0,8.0,78,0.00,,,0.00,0,Wunderground v.1.15,2013-11-01 18:56:00,
2013-11-01 12:06:00,49.3,42.7,30.19,East,91,2.0,8.0,78,0.00,,,0.00,0,Wunderground v.1.15,2013-11-01 19:06:00,
2013-11-01 12:16:00,50.2,43.6,30.19,SE,129,1.0,8.0,78,0.00,,,0.00,0,Wunderground v.1.15,2013-11-01 19:16:00,
2013-11-01 12:26:00,50.4,43.8,30.19,North,0,3.0,8.0,78,0.00,,,0.00,0,Wunderground v.1.15,2013-11-01 19:26:00,
2013-11-01 12:36:00,51.1,44.1,30.18,North,0,1.0,8.0,77,0.00,,,0.00,0,Wunderground v.1.15,2013-11-01 19:36:00,
2013-11-01 12:46:00,52.4,44.7,30.17,NE,48,3.0,8.0,75,0.00,,,0.00,0,Wunderground v.1.15,2013-11-01 19:46:00,
2013-11-01 12:56:00,52.7,45.7,30.17,ENE,66,1.0,8.0,77,0.00,,,0.00,0,Wunderground v.1.15,2013-11-01 19:56:00,
2013-11-01 13:06:00,53.6,45.9,30.16,North,0,1.0,8.0,75,0.00,,,0.00,0,Wunderground v.1.15,2013-11-01 20:06:00,
2013-11-01 13:11:00,53.8,46.4,30.16,SE,126,4.0,8.0,76,0.00,,,0.00,0,Wunderground v.1.15,2013-11-01 20:11:00,
2013-11-01 13:16:00,54.5,46.4,30.16,ESE,115,4.0,8.0,74,0.00,,,0.00,0,Wunderground v.1.15,2013-11-01 20:16:00,
2013-11-01 13:26:00,55.2,46.7,30.15,North,0,1.0,8.0,73,0.00,,,0.00,0,Wunderground v.1.15,2013-11-01 20:26:00,
2013-11-01 13:36:00,55.1,46.6,30.14,NE,52,2.0,8.0,73,0.00,,,0.00,0,Wunderground v.1.15,2013-11-01 20:36:00,
2013-11-01 13:46:00,55.9,47.0,30.14,ESE,104,0.0,8.0,72,0.00,,,0.00,0,Wunderground v.1.15,2013-11-01 20:46:00,
2013-11-01 13:56:00,57.5,47.0,30.13,SSW,192,1.0,8.0,68,0.00,,,0.00,0,Wunderground v.1.15,2013-11-01 20:56:00,
2013-11-01 14:06:00,56.7,46.6,30.13,ENE,62,0.0,8.0,69,0.00,,,0.00,0,Wunderground v.1.15,2013-11-01 21:06:00,
2013-11-01 14:11:00,57.1,46.6,30.13,ENE,63,1.0,8.0,68,0.00,,,0.00,0,Wunderground v.1.15,2013-11-01 21:11:00,
2013-11-01 14:16:00,57.1,45.8,30.13,East,96,1.0,8.0,66,0.00,,,0.00,0,Wunderground v.1.15,2013-11-01 21:16:00,
2013-11-01 14:26:00,57.1,45.0,30.12,North,1,2.0,8.0,64,0.00,,,0.00,0,Wunderground v.1.15,2013-11-01 21:26:00,
2013-11-01 14:36:00,57.3,44.8,30.12,North,4,0.0,8.0,63,0.00,,,0.00,0,Wunderground v.1.15,2013-11-01 21:36:00,
2013-11-01 14:46:00,58.2,46.1,30.12,East,96,4.0,8.0,64,0.00,,,0.00,0,Wunderground v.1.15,2013-11-01 21:46:00,
2013-11-01 14:56:00,59.2,46.2,30.11,SSW,195,2.0,8.0,62,0.00,,,0.00,0,Wunderground v.1.15,2013-11-01 21:56:00,
2013-11-01 15:06:00,59.5,46.5,30.10,ESE,114,0.0,8.0,62,0.00,,,0.00,0,Wunderground v.1.15,2013-11-01 22:06:00,
2013-11-01 15:16:00,59.1,46.5,30.10,ESE,111,0.0,8.0,63,0.00,,,0.00,0,Wunderground v.1.15,2013-11-01 22:16:00,
2013-11-01 15:26:00,60.0,46.9,30.10,ESE,109,0.0,8.0,62,0.00,,,0.00,0,Wunderground v.1.15,2013-11-01 22:26:00,
2013-11-01 15:36:00,60.6,47.5,30.09,SSW,193,0.0,8.0,62,0.00,,,0.00,0,Wunderground v.1.15,2013-11-01 22:36:00,
2013-11-01 15:46:00,60.8,48.1,30.09,ENE,66,0.0,8.0,63,0.00,,,0.00,0,Wunderground v.1.15,2013-11-01 22:46:00,
2013-11-01 15:56:00,59.6,47.4,30.08,NE,48,2.0,8.0,64,0.00,,,0.00,0,Wunderground v.1.15,2013-11-01 22:56:00,
2013-11-01 16:06:00,60.1,47.5,30.08,North,0,4.0,8.0,63,0.00,,,0.00,0,Wunderground v.1.15,2013-11-01 23:06:00,
2013-11-01 16:16:00,59.3,47.1,30.09,North,0,2.0,8.0,64,0.00,,,0.00,0,Wunderground v.1.15,2013-11-01 23:16:00,
2013-11-01 16:26:00,59.5,47.3,30.08,North,0,2.0,8.0,64,0.00,,,0.00,0,Wunderground v.1.15,2013-11-01 23:26:00,
2013-11-01 16:36:00,59.4,47.2,30.08,East,84,3.0,8.0,64,0.00,,,0.00,0,Wunderground v.1.15,2013-11-01 23:36:00,
2013-11-01 16:46:00,59.2,47.0,30.07,East,82,0.0,8.0,64,0.00,,,0.00,0,Wunderground v.1.15,2013-11-01 23:46:00,
2013-11-01 16:56:00,59.2,47.4,30.08,East,90,0.0,8.0,65,0.00,,,0.00,0,Wunderground v.1.15,2013-11-01 23:56:00,
2013-11-01 17:06:00,59.1,47.3,30.08,East,92,1.0,8.0,65,0.00,,,0.00,0,Wunderground v.1.15,2013-11-02 00:06:00,
2013-11-01 17:11:00,58.8,47.5,30.08,East,92,3.0,8.0,66,0.00,,,0.00,0,Wunderground v.1.15,2013-11-02 00:11:00,
2013-11-01 17:16:00,58.5,47.2,30.07,East,92,3.0,8.0,66,0.00,,,0.00,0,Wunderground v.1.15,2013-11-02 00:16:00,
2013-11-01 17:26:00,58.1,47.2,30.07,East,92,3.0,8.0,67,0.00,,,0.00,0,Wunderground v.1.15,2013-11-02 00:26:00,
2013-11-01 17:36:00,57.2,46.7,30.06,East,92,0.0,8.0,68,0.00,,,0.00,0,Wunderground v.1.15,2013-11-02 00:36:00,
2013-11-01 17:46:00,56.4,46.7,30.05,East,92,0.0,8.0,70,0.00,,,0.00,0,Wunderground v.1.15,2013-11-02 00:46:00,
2013-11-01 17:56:00,55.6,46.3,30.06,East,92,0.0,8.0,71,0.00,,,0.00,0,Wunderground v.1.15,2013-11-02 00:56:00,
2013-11-01 18:06:00,52.5,45.5,30.05,East,92,0.0,8.0,77,0.00,,,0.00,0,Wunderground v.1.15,2013-11-02 01:06:00,
2013-11-01 18:11:00,51.7,45.4,30.06,East,92,0.0,8.0,79,0.00,,,0.00,0,Wunderground v.1.15,2013-11-02 01:11:00,
2013-11-01 18:20:00,50.5,45.5,30.05,SSW,196,0.0,8.0,83,0.00,,,0.00,0,Wunderground v.1.15,2013-11-02 01:20:00,
2013-11-01 18:26:00,50.5,45.2,30.05,SSW,194,0.0,8.0,82,0.00,,,0.00,0,Wunderground v.1.15,2013-11-02 01:26:00,
2013-11-01 18:36:00,49.7,45.1,30.05,SSW,195,2.0,8.0,84,0.00,,,0.00,0,Wunderground v.1.15,2013-11-02 01:36:00,
2013-11-01 18:46:00,48.8,44.5,30.05,SSW,193,1.0,8.0,85,0.00,,,0.00,0,Wunderground v.1.15,2013-11-02 01:46:00,
2013-11-01 18:56:00,47.6,43.9,30.05,SSW,192,0.0,8.0,87,0.00,,,0.00,0,Wunderground v.1.15,2013-11-02 01:56:00,
2013-11-01 19:06:00,45.6,42.5,30.05,South,189,0.0,8.0,89,0.00,,,0.00,0,Wunderground v.1.15,2013-11-02 02:06:00,
2013-11-01 19:11:00,44.9,42.1,30.05,SSW,205,0.0,8.0,90,0.00,,,0.00,0,Wunderground v.1.15,2013-11-02 02:11:00,
2013-11-01 19:16:00,44.4,42.2,30.05,South,188,0.0,8.0,92,0.00,,,0.00,0,Wunderground v.1.15,2013-11-02 02:16:00,
2013-11-01 19:26:00,45.3,42.8,30.04,South,188,0.0,8.0,91,0.00,,,0.00,0,Wunderground v.1.15,2013-11-02 02:26:00,
2013-11-01 19:36:00,44.9,42.7,30.04,South,188,0.0,8.0,92,0.00,,,0.00,0,Wunderground v.1.15,2013-11-02 02:36:00,
2013-11-01 19:46:00,43.7,41.5,30.03,South,187,0.0,8.0,92,0.00,,,0.00,0,Wunderground v.1.15,2013-11-02 02:46:00,
2013-11-01 19:56:00,43.1,41.5,30.03,South,188,0.0,8.0,94,0.00,,,0.00,0,Wunderground v.1.15,2013-11-02 02:56:00,
2013-11-01 20:06:00,42.3,40.7,30.02,South,189,0.0,8.0,94,0.00,,,0.00,0,Wunderground v.1.15,2013-11-02 03:06:00,
2013-11-01 20:16:00,40.3,39.0,30.02,South,188,0.0,8.0,95,0.00,,,0.00,0,Wunderground v.1.15,2013-11-02 03:16:00,
2013-11-01 20:26:00,39.7,39.4,30.01,South,190,2.0,8.0,99,0.00,,,0.00,0,Wunderground v.1.15,2013-11-02 03:26:00,
2013-11-01 20:36:00,38.8,38.3,30.01,South,190,2.0,8.0,98,0.00,,,0.00,0,Wunderground v.1.15,2013-11-02 03:36:00,
2013-11-01 20:46:00,38.5,38.5,30.01,South,190,1.0,8.0,100,0.00,,,0.00,0,Wunderground v.1.15,2013-11-02 03:46:00,
2013-11-01 20:56:00,38.4,38.4,30.00,South,190,0.0,8.0,100,0.00,,,0.00,0,Wunderground v.1.15,2013-11-02 03:56:00,
2013-11-01 21:06:00,37.7,37.4,30.00,South,190,0.0,8.0,99,0.00,,,0.00,0,Wunderground v.1.15,2013-11-02 04:06:00,
2013-11-01 21:11:00,37.3,37.0,30.00,South,190,0.0,8.0,99,0.00,,,0.00,0,Wunderground v.1.15,2013-11-02 04:11:00,
2013-11-01 21:16:00,36.5,36.5,30.00,SSW,208,3.0,8.0,100,0.00,,,0.00,0,Wunderground v.1.15,2013-11-02 04:16:00,
2013-11-01 21:21:00,36.5,36.5,30.00,SSW,208,2.0,8.0,100,0.00,,,0.00,0,Wunderground v.1.15,2013-11-02 04:21:00,
2013-11-01 21:26:00,36.8,36.8,30.00,SSW,207,3.0,8.0,100,0.00,,,0.00,0,Wunderground v.1.15,2013-11-02 04:26:00,
2013-11-01 21:36:00,36.3,36.3,30.00,SSW,207,0.0,8.0,100,0.00,,,0.00,0,Wunderground v.1.15,2013-11-02 04:36:00,
2013-11-01 21:50:00,35.9,35.9,29.99,SSW,207,0.0,8.0,100,0.00,,,0.00,0,Wunderground v.1.15,2013-11-02 04:50:00,
2013-11-01 21:56:00,35.8,35.8,29.98,SSW,207,0.0,8.0,100,0.00,,,0.00,0,Wunderground v.1.15,2013-11-02 04:56:00,
2013-11-01 22:06:00,34.9,34.9,29.98,SSW,207,1.0,8.0,100,0.00,,,0.00,0,Wunderground v.1.15,2013-11-02 05:06:00,
2013-11-01 22:16:00,34.7,34.7,29.97,SSW,207,0.0,8.0,100,0.00,,,0.00,0,Wunderground v.1.15,2013-11-02 05:16:00,
2013-11-01 22:26:00,33.8,33.8,29.97,North,0,0.0,8.0,100,0.00,,,0.00,0,Wunderground v.1.15,2013-11-02 05:26:00,
2013-11-01 22:36:00,33.3,33.3,29.98,North,0,0.0,8.0,100,0.00,,,0.00,0,Wunderground v.1.15,2013-11-02 05:36:00,
2013-11-01 22:46:00,33.5,33.5,29.97,North,0,0.0,8.0,100,0.00,,,0.00,0,Wunderground v.1.15,2013-11-02 05:46:00,
2013-11-01 22:56:00,33.5,33.5,29.97,North,0,0.0,8.0,100,0.00,,,0.00,0,Wunderground v.1.15,2013-11-02 05:56:00,
2013-11-01 23:06:00,33.1,33.1,29.97,North,0,0.0,8.0,100,0.00,,,0.00,0,Wunderground v.1.15,2013-11-02 06:06:00,
2013-11-01 23:11:00,33.4,33.4,29.96,North,0,0.0,8.0,100,0.00,,,0.00,0,Wunderground v.1.15,2013-11-02 06:11:00,
2013-11-01 23:20:00,33.4,33.4,29.96,North,358,0.0,8.0,100,0.00,,,0.00,0,Wunderground v.1.15,2013-11-02 06:20:00,
2013-11-01 23:26:00,32.7,32.7,29.95,North,0,3.0,8.0,100,0.00,,,0.00,0,Wunderground v.1.15,2013-11-02 06:26:00,
2013-11-01 23:36:00,32.8,32.8,29.95,WSW,238,1.0,8.0,100,0.00,,,0.00,0,Wunderground v.1.15,2013-11-02 06:36:00,
2013-11-01 23:46:00,32.8,32.8,29.94,North,0,0.0,8.0,100,0.00,,,0.00,0,Wunderground v.1.15,2013-11-02 06:46:00,
2013-11-01 23:56:00,33.2,33.2,29.94,North,0,0.0,8.0,100,0.00,,,0.00,0,Wunderground v.1.15,2013-11-02 06:56:00,